Flag for Brazil Weather past 2 weeks in Belém, Pará, Brazil

Now
77 °F

Broken clouds.


Feels Like: 78 °F
Forecast: 75 / 86 °F
Wind: 6 mph from Southeast

Location: Belem Aeroporto

Current Time: May 24, 2015 at 8:59:19 AM

Latest Report: May 24, 2015 at 8:00 AM


Visibility: N/A

Pressure: 29.92 "Hg

Humidity: 94%

Dew point: 75 °F

Location of BelémLocation

Historic Weather in Belém — Graph

°F

Belém temperature yesterday

Maximum temperature yesterday: 90 °F (at 2:00 PM)
Minimum temperature yesterday: 75 °F (at 3:00 AM)
Average temperature yesterday: 80 °F

Past Weeks' High & Low Weather Summary

 TemperatureHumidityPressure
High90 °F (May 10, 3:00 PM)100% (May 11, 5:00 PM)29.98 "Hg (May 11, 5:00 PM)
Low39 °F (May 14, 4:00 PM)52% (May 22, 2:00 PM)29.80 "Hg (May 10, 3:00 PM)
Average80 °F85%29.89 "Hg
* Reported May 9 8:00 AM — May 24 8:00 AM, Belém, Weather by CustomWeather, © 2015

Note: Actual official high and low records may vary slightly from our data, if they occured in-between our weather recording intervals... More about our weather records

Advertising

Belém weather history for previous 24 hours

 ConditionsComfort  
Time TempWeatherWind HumidityBarometerVisibility
8:00 AM
Sun, May 24
77 °FBroken clouds.6 mph94%29.92 "HgN/A
7:00 AM77 °FPartly sunny.3 mph94%29.89 "HgN/A
6:00 AM77 °FPassing clouds.5 mph94%29.89 "HgN/A
5:00 AM77 °FPassing clouds.5 mph94%29.89 "HgN/A
4:00 AM77 °FPassing clouds.7 mph94%29.95 "HgN/A
3:00 AM77 °FPassing clouds.5 mph94%29.89 "HgN/A
2:00 AM79 °FPartly cloudy.5 mph89%29.95 "HgN/A
1:00 AM79 °FPassing clouds.5 mph89%29.89 "HgN/A
12:00 AM79 °FPartly cloudy.2 mph89%29.92 "HgN/A
11:00 PM
Sat, May 23
79 °FPartly cloudy.5 mph89%29.92 "HgN/A
10:00 PM79 °FPartly cloudy.5 mph89%29.92 "HgN/A
9:00 PM79 °FPassing clouds.2 mph94%29.92 "HgN/A
8:00 PM79 °FPassing clouds.5 mph94%29.89 "HgN/A
7:00 PM81 °FPassing clouds.2 mph84%29.86 "HgN/A
6:00 PM81 °FBroken clouds.3 mph84%29.86 "HgN/A
5:00 PM79 °FBroken clouds.7 mph89%29.83 "HgN/A
4:00 PM79 °FPartly sunny.8 mph94%29.83 "HgN/A
3:00 PM90 °FPartly sunny.9 mph59%29.83 "HgN/A
2:00 PM90 °FPartly sunny.7 mph59%29.86 "HgN/A
1:00 PM88 °FPartly sunny.10 mph66%29.89 "HgN/A
12:00 PM88 °FPartly sunny.13 mph62%29.92 "HgN/A
11:00 AM86 °FPartly sunny.12 mph70%29.95 "HgN/A
10:00 AM86 °FScattered clouds.10 mph70%29.95 "HgN/A
9:00 AM82 °FScattered clouds.10 mph79%29.95 "HgN/A
8:00 AM79 °FPassing clouds.6 mph89%29.95 "HgN/A
Weather by CustomWeather, © 2015

See weather overviewHow to use our weather pages